C/2011 Q2 ( McNaught )

Japanese version
Home page
Updated on December 7, 2011

---------------------------------------------------------------------

* Profile

Discovery Date August 26, 2011
Magnitude 14.5 mag
Discoverer Robert H. McNaught (Siding Spring)

* Pictures

* Orbital Elements

T 2012 Jan. 19.79465 TT                                 MPC
q   1.3496154            (2000.0)            P               Q
                   Peri.   34.62879     +0.67952847     +0.45865592
                   Node   287.36850     -0.73162991     +0.48151911
e   1.0            Incl.   36.86702     +0.05439434     +0.74684275
From 101 observations 2011 Aug. 26-Oct. 19.

* Finding Charts

* Magnitudes Graph

        m1 = 8.7 + 5 log d + 10.0 log r

---------------------------------------------------------------------

The orbital elements are published on M.P.E.C. 2011-U42.
The charts are made with StellaNavigator Ver.8 (AstroArts).
The magnitudes graphs are made with Comet for Windows.

---------------------------------------------------------------------

Copyright(C) Seiichi Yoshida (comet@aerith.net). All rights reserved.